Location: Asheville, NC
(35.6000°N, 82.5500°W)
Time: 10:52:31
(UTC-04:00)

Vanguard 2 Rocket - Pass Details

Date: 13 February 2018
Orbit: 553 x 3327 km, 32.9° (Epoch: 25 May)

Event Time Altitude Azimuth Distance (km) Brightness Sun altitude
Exits shadow 04:51:45 43° 268° (W) 4,164 9.6 -30.5°
Maximum altitude 05:01:10 78° 192° (SSW) 3,202 9.4 -28.6°
Drops below altitude 10° 05:17:20 10° 109° (ESE) 5,020 11.6 -25.3°
Sets 05:20:33 0° 108° (ESE) 5,727 12.2 -24.6°
